Regional Weather Roundup
Issued by NWS

Home | Current Version | Previous Version | Text Only | Print | Product List | Glossary On
Versions: 1 2 3 4 5 6 7 8 9 10 11 12 13 14 15 16 17 18 19 20 21 22 23 24 25 26 27 28 29 30 31 32 33 34 35 36 37 38 39 40 41 42 43 44 45 46 47 48 49 50
000
ASUS43 KTOP 201608
RWRKS

WEATHER ROUNDUP FOR KANSAS
NATIONAL WEATHER SERVICE GOODLAND KS
1100 AM CDT SAT SEP 20 2014

NOTE:  "FAIR" INDICATES FEW OR NO CLOUDS BELOW 12,000 FEET WITH NO
SIGNIFICANT WEATHER AND/OR OBSTRUCTIONS TO VISIBILITY.

KSZ001>006-013>018-027>032-041>047-201700-
NORTHWEST KANSAS

CITY           SKY/WX    TMP DP  RH WIND       PRES   REMARKS
GOODLAND       SUNNY     73  56  54 N17       30.10R
HAYS           SUNNY     79  64  61 SW10      29.99S
HILL CITY      SUNNY     79  64  60 NE12      29.98R
RUSSELL        SUNNY     78  66  66 SW10      29.97S
$$

KSZ061>065-074>080-084>089-201700-
SOUTHWEST KANSAS

CITY           SKY/WX    TMP DP  RH WIND       PRES   REMARKS
DODGE CITY     SUNNY     80  62  54 SW13      30.02R
ELKHART          N/A     75  63  66 NW6         N/A
GARDEN CITY    SUNNY     77  64  64 W9        30.03R
GREAT BEND     SUNNY     81  64  57 SW13      29.99S
LIBERAL        SUNNY     79  64  61 SW12      30.05S
PRATT          SUNNY     79  63  57 SW16      30.03R
$$

KSZ066>073-081>083-090>101-201700-
SOUTHEAST KANSAS

CITY           SKY/WX    TMP DP  RH WIND       PRES   REMARKS
CHANUTE        CLOUDY    73  71  93 S10       30.06R FOG
HUTCHINSON     SUNNY     82  66  58 S14       30.01R
MEDICINE LODGE   N/A     80  66  62 SW9       30.01S
NEWTON         SUNNY     81  64  57 S16       30.04S
PARSONS        CLOUDY    72  71  97 S10       30.07R FOG
WICHITA INTL   MOSUNNY   81  67  62 SW10      30.02R
WICHITA JABRA  SUNNY     80  68  66 SW13      30.02S
WICHITA MCCONL SUNNY     81  70  70 S12       30.03S
WINFIELD       MOSUNNY   82  71  69 SW10      30.04S
$$

KSZ007>012-019>026-033>040-048>060-102>105-201700-
NORTHEAST KANSAS

CITY           SKY/WX    TMP DP  RH WIND       PRES   REMARKS
CONCORDIA      SUNNY     78  67  68 SW13      29.96F
EMPORIA        SUNNY     79  71  76 S10       30.02S
LAWRENCE       SUNNY     79  69  71 SW8       29.99F
MANHATTAN      SUNNY     82  68  62 SW16      29.96F
MARYSVILLE     SUNNY     79  68  69 SW10      29.94F
OLATHE IND     SUNNY     78  70  76 S12       30.01F
OLATHE EXE     SUNNY     78  69  73 SW12      30.01F
SALINA         SUNNY     82  68  62 S13       29.98S
TOPEKA BILLARD SUNNY     81  71  71 SW9       29.98S
TOPEKA FORBES  SUNNY     80  69  69 SW14      29.98F
$$



USA.gov is the U.S. government's official web portal to all federal, state and local government web resources and services.